カタログに戻る

DELTA 1 DEB

運用中SSO
NORAD 42638·DEBRIS·🇺🇸 United States

打ち上げ Jun 12, 1975 から Vandenberg Space Force Base

Loading…

次のパス (今後24時間)

TLE

経年Source: Space-Track

元期: Sep 3, 2026, 12:50 UTC

1 42638U 75052LX  26246.53518126  .00001008  00000-0  12685-2 0  9996
2 42638  99.7378   1.4033 0043903 202.8244 157.0948 13.66182672589480

AllMySatでDELTA 1 DEBをリアルタイム追跡

Download on the App Store